[[{"header":{"parameterUnit":"m.s-1","parameterCategory":1,"la1":30.2991,"la2":30.254,"lo1":-89.0895,"lo2":-89.0444,"dy":0.0017,"dx":0.0017,"nx":28,"ny":28,"refTime":"2023-09-30T09:00:00:Z","depth":0,"parameterNumber":2,"parameterNumberName":"U-component_of_WINDS"},"data":[0,0,0,0,0,0,0,0,0,0,0,0,0,0,0,0,0,0,0,0,0,0,0,0,0,0,0,0,0,0,0,0,0,0,0,0,0,0,0,0,0,0,0,0,0,0,0,0,0,0,0,0,0,0,0,0,0,0,-4.3334,-4.3334,0,-4.3306,-4.3306,-4.3305,-4.3121,-4.3116,-4.3112,-4.3108,-4.3081,-4.3084,-4.3087,0,0,0,0,0,0,0,0,0,0,0,0,0,-4.3231,-4.3234,-4.3334,-4.3334,-4.3334,-4.3306,-4.3306,-4.3305,-4.3122,-4.3116,-4.3111,-4.3106,-4.3079,-4.3083,-4.3088,0,0,0,0,0,0,0,0,0,0,0,0,0,-4.3247,-4.3235,-4.3334,-4.3239,-4.323,-4.3306,-4.3306,-4.3305,-4.3123,-4.3116,-4.3109,-4.3103,-4.3078,-4.3083,-4.3088,-4.3255,0,0,-4.3104,-4.3106,0,0,0,0,0,0,0,0,-4.3246,-4.3251,-4.3253,-4.3245,-4.3236,-4.321,-4.3259,-4.3288,-4.3125,-4.3164,-4.3108,-4.31,-4.3129,-4.313,-4.3139,-4.3253,-4.3252,-4.3104,-4.3108,-4.311,-4.3111,0,0,0,0,0,0,0,-4.3246,-4.3251,-4.3323,-4.3253,-4.3243,-4.3198,-4.3193,-4.3264,-4.3185,-4.316,-4.3146,-4.3145,-4.3123,-4.3135,-4.3137,-4.3252,-4.3104,-4.3109,-4.3112,-4.3114,-4.3501,-4.3508,0,0,0,0,0,0,-4.3258,-4.3252,-4.3324,-4.3322,-4.3225,-4.3205,-4.3199,-4.3225,-4.3183,-4.317,-4.3151,-4.3137,-4.3129,-4.3131,-4.3136,-4.3327,-4.311,-4.3115,-4.3118,-4.3494,-4.3503,-4.351,0,0,0,0,0,0,-4.3256,-4.3266,-4.3325,-4.3283,-4.3287,-4.3214,-4.3245,-4.3228,-4.3239,-4.3177,-4.3162,-4.3177,-4.3124,-4.3128,-4.3226,-4.3324,-4.3117,-4.3122,-4.3486,-4.3497,-4.3507,-4.3713,0,0,0,0,0,0,-4.3254,-4.3266,-4.3329,-4.3286,-4.329,-4.3417,-4.3251,-4.3232,-4.3249,-4.323,-4.3197,-4.3186,-4.3119,-4.322,-4.3231,-4.3327,-4.3126,-4.3476,-4.349,-4.3503,-4.3697,-4.3729,-4.3757,0,0,0,0,0,-4.3251,-4.3388,-4.3333,-4.3342,-4.3366,-4.3422,-4.3425,-4.3345,-4.3257,-4.3319,-4.3279,-4.3187,-4.3312,-4.3231,-4.3243,-4.3342,-4.347,-4.3486,-4.3502,-4.3684,-4.3723,-4.3756,0,0,0,0,0,0,-4.3445,-4.3381,-4.3318,-4.3446,-4.3441,-4.3391,-4.3467,-4.3389,-4.3409,-4.3391,-4.3291,-4.3286,-4.3399,-4.338,-4.3292,-4.3501,-4.3375,-4.3394,-4.3509,-4.3546,-4.3575,-4.3577,-4.313,0,0,0,0,0,-4.3502,-4.3553,-4.3494,-4.3612,-4.3613,-4.3541,-4.3563,-4.3501,-4.3492,-4.3489,-4.3456,-4.3452,-4.3489,-4.3516,-4.3548,-4.3694,-4.3684,-4.3768,-4.3798,-4.3822,-4.384,-4.3916,-4.3952,-4.3563,-4.3563,-4.3563,0,0,-4.3622,-4.3593,-4.3631,-4.3651,-4.3639,-4.3694,-4.354,-4.3605,-4.3645,-4.3499,-4.3589,-4.3566,-4.3554,-4.3676,-4.3729,-4.3664,-4.3946,-4.3843,-4.3863,-4.3867,-4.3936,-4.3973,-4.4006,-4.3574,-4.3572,-4.3571,0,0,-4.3867,-4.3851,-4.3947,-4.3939,-4.3924,-4.3875,-4.3899,-4.3861,-4.3839,-4.3928,-4.382,-4.3866,-4.3934,-4.393,-4.3937,-4.4182,-4.4097,-4.4195,-4.4351,-4.4426,-4.4457,-4.4483,-4.4571,-4.4603,-4.4213,-4.4213,-4.4214,0,-4.4017,-4.4094,-4.4006,-4.4078,-4.409,-4.396,-4.4057,-4.4054,-4.4051,-4.4063,-4.399,-4.4072,-4.4055,-4.4175,-4.4235,-4.4245,-4.4269,-4.4197,-4.4459,-4.4485,-4.4509,-4.4591,-4.4624,-4.4225,-4.4224,-4.4223,-4.4221,0,-4.428,-4.4336,-4.4415,-4.4415,-4.4436,-4.452,-4.4445,-4.4477,-4.4415,-4.4374,-4.4467,-4.4442,-4.4466,-4.449,-4.443,-4.4602,-4.4562,-4.4477,-4.4348,-4.4559,-4.4635,-4.4665,-4.4242,-4.4238,-4.4234,-4.4231,0,0,-4.4646,-4.4595,-4.4626,-4.4624,-4.4598,-4.464,-4.4719,-4.4742,-4.4771,-4.4774,-4.4837,-4.4898,-4.4818,-4.4826,-4.4765,-4.4831,-4.5026,-4.4736,-4.4734,-4.4791,-4.5214,-4.5279,-4.5317,-4.4971,-4.4976,-4.4981,-4.5215,0,-4.488,-4.5011,-4.4934,-4.5076,-4.5126,-4.5005,-4.5073,-4.5066,-4.503,-4.5068,-4.5029,-4.5073,-4.4965,-4.4969,-4.5029,-4.499,-4.511,-4.4972,-4.5029,-4.5032,-4.5035,-4.5356,-4.5424,-4.5646,-4.5244,-4.5249,-4.5252,0,-4.5171,-4.5186,-4.5333,-4.5298,-4.5316,-4.5379,-4.5394,-4.5432,-4.5421,-4.539,-4.54,-4.5322,-4.5398,-4.5272,-4.5374,-4.5282,-4.5301,-4.5286,-4.5293,-4.5294,-4.5155,-4.5366,-4.5715,-4.5749,-4.5298,-4.5294,-4.5291,0,-4.5423,-4.5479,-4.5574,-4.5576,-4.5538,-4.5585,-4.5571,-4.5553,-4.5572,-4.5586,-4.5597,-4.562,-4.5633,-4.5653,-4.5584,-4.5498,-4.5696,-4.5564,-4.5673,-4.5675,-4.5719,-4.5717,-4.6076,-4.5733,-4.5733,-4.5732,-4.5732,0,-4.5692,-4.5787,-4.5686,-4.5745,-4.5848,-4.5759,-4.5864,-4.5837,-4.5822,-4.5874,-4.5771,-4.5822,-4.5728,-4.577,-4.5716,-4.5809,-4.5816,-4.5794,-4.5778,-4.5803,-4.5806,-4.5813,-4.5796,-4.5741,-4.5739,-4.5737,-4.5736,0,-4.599,-4.5927,-4.6022,-4.5978,-4.5969,-4.6047,-4.6009,-4.6061,-4.6019,-4.6086,-4.6097,-4.6031,-4.6074,-4.6008,-4.6044,-4.6008,-4.6137,-4.6098,-4.6141,-4.6129,-4.6242,-4.6232,-4.6618,-4.6664,-4.6293,-4.6296,-4.6299,0,-4.6166,-4.6236,-4.6199,-4.6226,-4.6218,-4.6263,-4.6281,-4.6197,-4.6221,-4.6214,-4.6268,-4.6303,-4.6327,-4.6403,-4.6359,-4.6386,-4.6347,-4.648,-4.6351,-4.6373,-4.6349,-4.6345,-4.6352,-4.6507,-4.6511,-4.6515,-4.6518,0,-4.6485,-4.645,-4.6481,-4.6501,-4.6526,-4.6538,-4.6542,-4.6571,-4.6482,-4.6515,-4.6558,-4.6576,-4.6613,-4.6649,-4.6666,-4.6652,-4.6572,-4.6559,-4.6586,-4.6611,-4.6633,-4.6622,-4.6213,-4.6551,-4.6547,-4.6545,-4.6543,-4.6542,-4.6727,-4.6783,-4.6766,-4.6804,-4.6798,-4.6805,-4.6852,-4.6816,-4.685,-4.6873,-4.6822,-4.6878,-4.6865,-4.6879,-4.6875,-4.6918,-4.6859,-4.6898,-4.6907,-4.6918,-4.6936,-4.6627,-4.692,-4.6919,-4.6918,-4.6918,-4.6917,0,-4.704,-4.7023,-4.7058,-4.7068,-4.7098,-4.7018,-4.7019,-4.705,-4.71,-4.7095,-4.712,-4.717,-4.7205,-4.7165,-4.7192,-4.7235,-4.7198,-4.7245,-4.724,-4.7239,-4.6986,-4.696,-4.7274,-4.7274,-4.7273,-4.7273,-4.7273,-4.7273,-4.7206,-4.7298,-4.7261,-4.7349,-4.7331,-4.7384,-4.7392,-4.7398,-4.7393,-4.7454,-4.7482,-4.7455,-4.7436,-4.7461,-4.749,-4.7477,-4.7492,-4.7552,-4.7526,-4.7291,-4.7256,-4.7223,-4.7198,-4.7556,-4.7556,-4.7774,-4.7776,-4.7778]},{"header":{"parameterUnit":"m.s-1","parameterCategory":1,"la1":30.2991,"la2":30.254,"lo1":-89.0895,"lo2":-89.0444,"dy":0.0017,"dx":0.0017,"nx":28,"ny":28,"refTime":"2023-09-30T09:00:00:Z","depth":0,"parameterNumber":3,"parameterNumberName":"V-component_of_WINDS"},"data":[0,0,0,0,0,0,0,0,0,0,0,0,0,0,0,0,0,0,0,0,0,0,0,0,0,0,0,0,0,0,0,0,0,0,0,0,0,0,0,0,0,0,0,0,0,0,0,0,0,0,0,0,0,0,0,0,0,0,1.9145,1.9145,0,1.912,1.912,1.9119,1.9122,1.9122,1.9123,1.9123,1.9092,1.9091,1.909,0,0,0,0,0,0,0,0,0,0,0,0,0,1.9191,1.919,1.9145,1.9145,1.9144,1.912,1.912,1.9119,1.9122,1.9122,1.9123,1.9123,1.9092,1.9091,1.909,0,0,0,0,0,0,0,0,0,0,0,0,0,1.9169,1.919,1.9145,1.9143,1.9142,1.912,1.912,1.9119,1.9122,1.9122,1.9123,1.9123,1.9093,1.9091,1.9089,1.9066,0,0,1.9084,1.9083,0,0,0,0,0,0,0,0,1.917,1.9167,1.9143,1.9143,1.9142,1.9125,1.9125,1.9101,1.9121,1.9129,1.9123,1.9124,1.9102,1.91,1.9093,1.9065,1.9063,1.9084,1.9083,1.9082,1.9081,0,0,0,0,0,0,0,1.9172,1.9168,1.9135,1.9143,1.9142,1.9142,1.9139,1.912,1.9112,1.9129,1.9129,1.9126,1.9102,1.9095,1.9093,1.9063,1.9084,1.9082,1.9081,1.908,1.9016,1.9015,0,0,0,0,0,0,1.9175,1.917,1.9136,1.9134,1.9158,1.9141,1.9138,1.913,1.9113,1.9111,1.9126,1.9126,1.9098,1.9095,1.9092,1.9064,1.9082,1.908,1.9079,1.9016,1.9016,1.9015,0,0,0,0,0,0,1.9176,1.9171,1.9137,1.9152,1.9148,1.9139,1.913,1.9129,1.9122,1.911,1.9109,1.912,1.9098,1.9094,1.9073,1.9063,1.9079,1.9078,1.9017,1.9016,1.9015,1.9008,0,0,0,0,0,0,1.9177,1.9172,1.9163,1.9152,1.9147,1.912,1.9129,1.9128,1.912,1.912,1.9105,1.9103,1.9098,1.9076,1.9071,1.9061,1.9076,1.9018,1.9017,1.9015,1.9009,1.9007,1.9005,0,0,0,0,0,1.9178,1.9161,1.9163,1.9159,1.9136,1.9119,1.9116,1.9112,1.9119,1.911,1.9103,1.9103,1.9065,1.9074,1.9069,1.9057,1.9018,1.9017,1.9016,1.901,1.9007,1.9005,0,0,0,0,0,0,1.9169,1.9159,1.9161,1.914,1.9131,1.912,1.9108,1.911,1.9097,1.9098,1.9093,1.9089,1.9068,1.9061,1.907,1.9035,1.9043,1.904,1.904,1.9037,1.9036,1.9037,1.9075,0,0,0,0,0,1.9165,1.9153,1.9145,1.9127,1.9122,1.9116,1.9108,1.9107,1.9096,1.9092,1.9083,1.9071,1.9057,1.9047,1.9033,1.9009,1.9006,1.8999,1.8997,1.8995,1.8992,1.898,1.8977,1.901,1.901,1.901,0,0,1.9155,1.9149,1.9141,1.9125,1.9117,1.9104,1.9112,1.9098,1.9087,1.9089,1.9069,1.9063,1.9049,1.9027,1.9017,1.902,1.8983,1.8993,1.8992,1.899,1.8978,1.8975,1.8972,1.9009,1.9009,1.9009,0,0,1.9131,1.9125,1.911,1.9103,1.9093,1.9089,1.9086,1.9075,1.9072,1.9052,1.9054,1.9041,1.9016,1.9007,1.8999,1.8975,1.8975,1.897,1.8959,1.8947,1.8944,1.8942,1.8933,1.893,1.8968,1.8968,1.8968,0,1.912,1.9101,1.9101,1.9087,1.908,1.9084,1.9068,1.906,1.9045,1.904,1.9045,1.9015,1.9006,1.8982,1.8977,1.897,1.8966,1.8971,1.8945,1.8943,1.894,1.8932,1.8928,1.8967,1.8967,1.8967,1.8967,0,1.9088,1.9075,1.9064,1.9052,1.9043,1.9028,1.9025,1.9017,1.9017,1.9013,1.8994,1.8984,1.8969,1.8964,1.8962,1.894,1.8943,1.8946,1.8954,1.8937,1.8928,1.8925,1.8967,1.8967,1.8967,1.8967,0,0,1.9054,1.9045,1.904,1.9035,1.9026,1.9015,1.9001,1.8988,1.8981,1.8971,1.8958,1.8939,1.8943,1.8934,1.8932,1.8922,1.8904,1.8927,1.8927,1.8923,1.8879,1.8875,1.8871,1.8905,1.8904,1.8904,1.888,0,1.9028,1.9004,1.9005,1.8982,1.897,1.8975,1.8962,1.8955,1.8951,1.894,1.8936,1.8922,1.8929,1.8924,1.8914,1.8908,1.8895,1.891,1.8892,1.8891,1.8893,1.8867,1.8862,1.884,1.8876,1.8876,1.8875,0,1.8994,1.8985,1.8962,1.8956,1.8951,1.894,1.8929,1.8919,1.891,1.8909,1.8901,1.8901,1.8886,1.8896,1.8875,1.8885,1.8878,1.8875,1.8874,1.887,1.8881,1.8862,1.8833,1.8829,1.887,1.8871,1.8871,0,1.8971,1.8954,1.8938,1.8933,1.8926,1.8918,1.8914,1.8907,1.89,1.889,1.8886,1.8874,1.8867,1.8858,1.8855,1.8863,1.8834,1.8843,1.8831,1.8831,1.8823,1.8823,1.8791,1.8821,1.8821,1.8821,1.8821,0,1.8941,1.8926,1.8928,1.8917,1.8901,1.8903,1.8886,1.8883,1.8877,1.8866,1.887,1.8859,1.8857,1.8846,1.8844,1.8827,1.8824,1.8821,1.8821,1.882,1.882,1.8814,1.8815,1.882,1.882,1.8821,1.8821,0,1.8911,1.8912,1.8894,1.889,1.8889,1.8877,1.8873,1.8863,1.8862,1.8848,1.8844,1.8841,1.8829,1.8826,1.881,1.8809,1.8789,1.879,1.8792,1.8791,1.8779,1.878,1.8741,1.8735,1.877,1.877,1.8769,0,1.8891,1.888,1.8876,1.887,1.8866,1.8856,1.885,1.8851,1.8844,1.8836,1.8827,1.8816,1.8806,1.8786,1.8781,1.877,1.877,1.8757,1.8768,1.8768,1.8769,1.8769,1.8768,1.8754,1.8754,1.8754,1.8753,0,1.8855,1.8857,1.8848,1.8841,1.8834,1.8827,1.8821,1.8815,1.8816,1.8808,1.8797,1.879,1.8776,1.8764,1.8753,1.8748,1.875,1.8751,1.8747,1.8745,1.8747,1.8745,1.8785,1.8751,1.8751,1.8751,1.8751,1.8751,1.8829,1.882,1.8816,1.8807,1.8803,1.8798,1.8789,1.8788,1.8779,1.8769,1.877,1.8758,1.8751,1.8737,1.8732,1.8722,1.8726,1.872,1.8719,1.8717,1.8716,1.875,1.872,1.872,1.872,1.872,1.872,0,1.8792,1.8791,1.8783,1.8776,1.8769,1.8775,1.8769,1.8762,1.8752,1.8746,1.8738,1.8725,1.8715,1.8711,1.8701,1.8693,1.8694,1.869,1.869,1.8689,1.8713,1.8717,1.869,1.869,1.869,1.869,1.869,1.869,1.8773,1.8758,1.876,1.8744,1.8742,1.8731,1.8727,1.8723,1.8719,1.8705,1.8697,1.8696,1.8691,1.8681,1.8672,1.8671,1.8666,1.8662,1.8661,1.8684,1.8687,1.869,1.8693,1.8661,1.8661,1.8637,1.8637,1.8637]}]]